Flag for United Kingdom Weather past 2 weeks in London, England, United Kingdom

Now
61 °F

Passing clouds.


Feels Like: 61 °F
Forecast: 59 / 76 °F
Wind: 3 mph from Northwest

Location: Northolt

Current Time: Jul 30, 2014 at 3:05:44 AM

Latest Report: Jul 30, 2014 at 1:50 AM


Visibility: N/A

Pressure: 30.01 "Hg

Humidity: 72%

Dew point: 52 °F

Location of LondonLocation

Historic Weather in London — Graph

°F

London temperature yesterday

Maximum temperature yesterday: 79 °F (at 3:50 PM)
Minimum temperature yesterday: 59 °F (at 5:50 AM)
Average temperature yesterday: 69 °F

Past Weeks' High & Low Weather Summary

 TemperatureHumidityPressure
High86 °F (Jul 18, 1:50 PM)94% (Jul 16, 4:50 AM)30.21 "Hg (Jul 16, 4:50 AM)
Low55 °F (Jul 16, 4:50 AM)30% (Jul 24, 7:50 PM)29.71 "Hg (Jul 19, 5:50 PM)
Average70 °F66%30.01 "Hg
* Reported Jul 15 12:50 AM — Jul 30 12:50 AM, London, Weather by CustomWeather, © 2014

Note: Actual official high and low records may vary slightly from our data, if they occured in-between our weather recording intervals... More about our weather records

Advertising

London weather history for previous 24 hours

 ConditionsComfort  
Time TempWeatherWind HumidityBarometerVisibility
12:50 AM
Jul 30
64 °FPassing clouds.9 mph64%30.01 "HgN/A
11:50 PM
Jul 29
66 °FOvercast.14 mph68%29.98 "HgN/A
10:50 PM68 °FClear.10 mph64%29.98 "Hg10 mi
9:50 PM68 °FSunny.10 mph64%29.98 "Hg10 mi
8:50 PM72 °FSunny.8 mph53%29.95 "Hg10 mi
7:50 PM73 °FSunny.10 mph47%29.95 "Hg10 mi
6:50 PM77 °FSunny.7 mph39%29.95 "Hg10 mi
5:50 PM79 °FSunny.9 mph34%29.95 "Hg10 mi
4:50 PM77 °FSunny.7 mph39%29.95 "Hg10 mi
3:50 PM79 °FSunny.7 mph42%29.95 "Hg10 mi
2:50 PM75 °FSunny.8 mph41%29.98 "Hg10 mi
1:50 PM75 °FSunny.9 mph44%29.98 "Hg10 mi
12:50 PM73 °FSunny.9 mph47%30.01 "Hg10 mi
11:50 AM73 °FPassing clouds.8 mph41%30.01 "HgN/A
10:50 AM70 °FSunny.8 mph53%30.01 "Hg10 mi
9:50 AM68 °FSunny.8 mph56%30.01 "Hg10 mi
8:50 AM66 °FSunny.8 mph64%30.01 "Hg10 mi
7:50 AM63 °FSunny.8 mph83%30.04 "Hg10 mi
6:50 AM61 °FSunny.5 mph83%30.01 "Hg10 mi
5:50 AM59 °FPassing clouds.7 mph88%30.01 "HgN/A
4:50 AM61 °FPassing clouds.7 mph83%30.01 "HgN/A
3:50 AM61 °FPartly cloudy.6 mph88%30.01 "HgN/A
Weather by CustomWeather, © 2014

See weather overviewHow to use our weather pages